BLACKSKY GLOBAL 2 (43812 NORAD) Tracking and Keplerian Element Data

This shows tracking and keplerian element data for the satellite.

Feedback or suggestion? Click here.




ElementValue
Catalog43812
NameBLACKSKY GLOBAL 2
Epoch Orbit393
Epoch Day1.86022375
Epoch Year2019
RAAN75.7391
Inclination97.7631
Eccentricity0.0014102
Argument of Perigee164.8961
Mean Anonmoly195.2684
Mean Motion14.95326082
Decay Rate5.2E-07
L11 43812U 18099BG 19001.86022375 .00000052 00000-0 99684-5 0 9997
L22 43812 97.7631 75.7391 0014102 164.8961 195.2684 14.95326082 3938

Live tracking and technical data element details for BLACKSKY GLOBAL 2 (NORAD 43812). BLACKSKY GLOBAL 2 can be tracked NOW for your location showing map with azimuth and elevation plus other details from your city location.

Track the satellite on the map from your city or location and see movement details for azimuth, elevation, latitude, longitude, range, height, and movement on the map or in text.







IsCatalogInMostPopularTable: catalog: 43812, numindb: 105
Update: records affected: 1



GetName: 43812 BLACKSKY GLOBAL 2

Hit Count: updated at: Sat, 20 Jul 2019 21:58:55 GMT